Time,TemperatureF,DewpointF,PressureIn,WindDirection,WindDirectionDegrees,WindSpeedMPH,WindSpeedGustMPH,Humidity,HourlyPrecipIn,Conditions,Clouds,dailyrainin,SolarRadiationWatts/m^2,SoftwareType,DateUTC
2013-07-28 00:01:00,58.5,52.4,29.81,NW,325,0.1,1.2,80,0.00,RA,SCT,0.00,0.0,WeatherDisplay:10.37,2013-07-28 04:01:00,
2013-07-28 00:02:00,58.5,52.4,29.81,West,279,0.0,1.2,80,0.00,RA,SCT,0.00,0.0,WeatherDisplay:10.37,2013-07-28 04:02:00,
2013-07-28 00:04:00,58.4,52.3,29.81,WNW,284,0.1,1.2,80,0.00,RA,SCT,0.00,0.0,WeatherDisplay:10.37,2013-07-28 04:04:00,
2013-07-28 00:09:00,58.2,52.1,29.82,WNW,282,0.0,1.2,80,0.00,RA,SCT,0.00,0.0,WeatherDisplay:10.37,2013-07-28 04:09:00,
2013-07-28 00:14:00,58.0,51.9,29.82,NW,315,1.2,3.5,80,0.00,SCT,,0.00,0.0,WeatherDisplay:10.37,2013-07-28 04:14:00,
2013-07-28 00:19:00,58.0,51.9,29.82,NW,313,0.0,2.3,80,0.00,SCT,,0.00,0.0,WeatherDisplay:10.37,2013-07-28 04:19:00,
2013-07-28 00:24:00,57.9,52.1,29.82,NW,313,0.0,1.2,81,0.00,SCT,,0.00,0.0,WeatherDisplay:10.37,2013-07-28 04:24:00,
2013-07-28 00:29:00,57.7,52.2,29.82,NW,313,0.1,1.2,82,0.00,SCT,,0.00,0.0,WeatherDisplay:10.37,2013-07-28 04:29:00,
2013-07-28 00:34:00,57.5,52.0,29.82,West,265,0.2,3.5,82,0.00,SCT,,0.00,0.0,WeatherDisplay:10.37,2013-07-28 04:34:00,
2013-07-28 00:39:00,57.4,51.9,29.82,NW,320,0.2,2.3,82,0.00,SCT,,0.00,0.0,WeatherDisplay:10.37,2013-07-28 04:39:00,
2013-07-28 00:44:00,57.3,52.2,29.82,WNW,292,0.0,1.2,83,0.00,SCT,,0.00,0.0,WeatherDisplay:10.37,2013-07-28 04:44:00,
2013-07-28 00:49:00,57.2,52.1,29.82,WNW,292,0.0,1.2,83,0.00,SCT,,0.00,0.0,WeatherDisplay:10.37,2013-07-28 04:49:00,
2013-07-28 00:54:00,57.1,52.0,29.82,West,271,0.0,1.2,83,0.00,SCT,,0.00,0.0,WeatherDisplay:10.37,2013-07-28 04:54:00,
2013-07-28 00:59:00,57.0,51.9,29.82,West,264,0.1,1.2,83,0.00,SCT,,0.00,0.0,WeatherDisplay:10.37,2013-07-28 04:59:00,
2013-07-28 01:04:00,56.9,51.8,29.82,WNW,286,0.1,1.2,83,0.00,SCT,,0.00,0.0,WeatherDisplay:10.37,2013-07-28 05:04:00,
2013-07-28 01:09:00,56.8,51.7,29.82,WNW,286,0.0,0.0,83,0.00,SCT,,0.00,0.0,WeatherDisplay:10.37,2013-07-28 05:09:00,
2013-07-28 01:14:00,56.6,51.5,29.82,West,276,0.0,0.0,83,0.00,SCT,,0.00,0.0,WeatherDisplay:10.37,2013-07-28 05:14:00,
2013-07-28 01:19:00,56.5,51.7,29.82,West,276,0.0,0.0,84,0.00,SCT,,0.00,0.0,WeatherDisplay:10.37,2013-07-28 05:19:00,
2013-07-28 01:24:00,56.3,51.8,29.82,West,276,0.0,0.0,85,0.00,SCT,,0.00,0.0,WeatherDisplay:10.37,2013-07-28 05:24:00,
2013-07-28 01:29:00,56.2,51.7,29.82,West,276,0.0,0.0,85,0.00,SCT,,0.00,0.0,WeatherDisplay:10.37,2013-07-28 05:29:00,
2013-07-28 01:34:00,56.0,51.9,29.82,West,276,0.0,0.0,86,0.00,SCT,,0.00,0.0,WeatherDisplay:10.37,2013-07-28 05:34:00,
2013-07-28 01:39:00,55.9,51.8,29.81,West,276,0.0,0.0,86,0.00,SCT,,0.00,0.0,WeatherDisplay:10.37,2013-07-28 05:39:00,
2013-07-28 01:44:00,55.9,52.1,29.81,West,276,0.0,0.0,87,0.00,SCT,,0.00,0.0,WeatherDisplay:10.37,2013-07-28 05:44:00,
2013-07-28 01:49:00,55.8,52.0,29.81,West,276,0.0,0.0,87,0.00,SCT,,0.00,0.0,WeatherDisplay:10.37,2013-07-28 05:49:00,
2013-07-28 01:54:00,55.8,51.7,29.82,West,276,0.0,0.0,86,0.00,SCT,,0.00,0.0,WeatherDisplay:10.37,2013-07-28 05:54:00,
2013-07-28 01:59:00,55.7,51.9,29.81,West,276,0.0,0.0,87,0.00,SCT,,0.00,0.0,WeatherDisplay:10.37,2013-07-28 05:59:00,
2013-07-28 02:04:00,55.7,51.9,29.81,West,276,0.0,0.0,87,0.00,SCT,,0.00,0.0,WeatherDisplay:10.37,2013-07-28 06:04:00,
2013-07-28 02:09:00,55.5,51.7,29.81,West,276,0.0,0.0,87,0.00,SCT,,0.00,0.0,WeatherDisplay:10.37,2013-07-28 06:09:00,
2013-07-28 02:14:00,55.3,51.5,29.81,West,276,0.0,0.0,87,0.00,SCT,,0.00,0.0,WeatherDisplay:10.37,2013-07-28 06:14:00,
2013-07-28 02:19:00,55.1,51.6,29.81,West,276,0.0,0.0,88,0.00,SCT,,0.00,0.0,WeatherDisplay:10.37,2013-07-28 06:19:00,
2013-07-28 02:24:00,55.0,51.5,29.81,West,276,0.0,0.0,88,0.00,SCT,,0.00,0.0,WeatherDisplay:10.37,2013-07-28 06:24:00,
2013-07-28 02:29:00,54.8,51.3,29.81,West,276,0.0,0.0,88,0.00,SCT,,0.00,0.0,WeatherDisplay:10.37,2013-07-28 06:29:00,
2013-07-28 02:34:00,54.7,51.5,29.81,West,276,0.0,0.0,89,0.00,SCT,,0.00,0.0,WeatherDisplay:10.37,2013-07-28 06:34:00,
2013-07-28 02:39:00,54.5,51.3,29.81,West,276,0.0,0.0,89,0.00,SCT,,0.00,0.0,WeatherDisplay:10.37,2013-07-28 06:39:00,
2013-07-28 02:44:00,54.4,51.5,29.80,West,276,0.0,0.0,90,0.00,SCT,,0.00,0.0,WeatherDisplay:10.37,2013-07-28 06:44:00,
2013-07-28 02:49:00,54.2,51.3,29.80,West,276,0.0,0.0,90,0.00,SCT,,0.00,0.0,WeatherDisplay:10.37,2013-07-28 06:49:00,
2013-07-28 02:54:00,54.1,51.2,29.80,West,276,0.0,0.0,90,0.00,SCT,,0.00,0.0,WeatherDisplay:10.37,2013-07-28 06:54:00,
2013-07-28 02:59:00,53.9,51.0,29.80,West,276,0.0,0.0,90,0.00,SCT,,0.00,0.0,WeatherDisplay:10.37,2013-07-28 06:59:00,
2013-07-28 03:04:00,53.8,51.2,29.80,West,276,0.0,0.0,91,0.00,SCT,,0.00,0.0,WeatherDisplay:10.37,2013-07-28 07:04:00,
2013-07-28 03:09:00,53.6,51.0,29.80,West,276,0.0,0.0,91,0.00,SCT,,0.00,0.0,WeatherDisplay:10.37,2013-07-28 07:09:00,
2013-07-28 03:14:00,53.5,50.9,29.80,West,276,0.0,0.0,91,0.00,SCT,,0.00,0.0,WeatherDisplay:10.37,2013-07-28 07:14:00,
2013-07-28 03:19:00,53.3,50.7,29.80,West,276,0.0,0.0,91,0.00,SCT,,0.00,0.0,WeatherDisplay:10.37,2013-07-28 07:19:00,
2013-07-28 03:24:00,53.1,50.8,29.80,West,276,0.0,0.0,92,0.00,SCT,,0.00,0.0,WeatherDisplay:10.37,2013-07-28 07:24:00,
2013-07-28 03:29:00,53.0,50.7,29.81,West,276,0.0,0.0,92,0.00,SCT,,0.00,0.0,WeatherDisplay:10.37,2013-07-28 07:29:00,
2013-07-28 03:34:00,52.9,50.6,29.81,West,276,0.0,0.0,92,0.00,SCT,,0.00,0.0,WeatherDisplay:10.37,2013-07-28 07:34:00,
2013-07-28 03:39:00,52.7,50.4,29.81,West,276,0.0,0.0,92,0.00,SCT,,0.00,0.0,WeatherDisplay:10.37,2013-07-28 07:39:00,
2013-07-28 03:44:00,52.6,50.6,29.81,West,276,0.0,0.0,93,0.00,SCT,,0.00,0.0,WeatherDisplay:10.37,2013-07-28 07:44:00,
2013-07-28 03:49:00,52.5,50.5,29.81,West,276,0.0,0.0,93,0.00,SCT,,0.00,0.0,WeatherDisplay:10.37,2013-07-28 07:49:00,
2013-07-28 03:54:00,52.4,50.4,29.81,West,276,0.0,0.0,93,0.00,SCT,,0.00,0.0,WeatherDisplay:10.37,2013-07-28 07:54:00,
2013-07-28 03:59:00,52.3,50.3,29.82,West,276,0.0,0.0,93,0.00,SCT,,0.00,0.0,WeatherDisplay:10.37,2013-07-28 07:59:00,
2013-07-28 04:04:00,52.2,50.5,29.82,West,276,0.0,0.0,94,0.00,FEW,SCT,0.00,0.0,WeatherDisplay:10.37,2013-07-28 08:04:00,
2013-07-28 04:09:00,52.1,50.1,29.82,West,276,0.0,0.0,93,0.00,FEW,SCT,0.00,0.0,WeatherDisplay:10.37,2013-07-28 08:09:00,
2013-07-28 04:14:00,52.1,50.4,29.82,West,276,0.0,0.0,94,0.00,FEW,SCT,0.00,0.0,WeatherDisplay:10.37,2013-07-28 08:14:00,
2013-07-28 04:19:00,51.9,50.2,29.82,West,276,0.0,0.0,94,0.00,FEW,SCT,0.00,0.0,WeatherDisplay:10.37,2013-07-28 08:19:00,
2013-07-28 04:24:00,51.9,50.2,29.82,West,276,0.0,0.0,94,0.00,FEW,SCT,0.00,0.0,WeatherDisplay:10.37,2013-07-28 08:24:00,
2013-07-28 04:29:00,51.9,50.2,29.82,West,276,0.0,0.0,94,0.00,FEW,SCT,0.00,0.0,WeatherDisplay:10.37,2013-07-28 08:29:00,
2013-07-28 04:34:00,51.9,50.2,29.82,West,276,0.0,0.0,94,0.00,FEW,SCT,0.00,0.0,WeatherDisplay:10.37,2013-07-28 08:34:00,
2013-07-28 04:39:00,51.8,50.1,29.83,West,276,0.0,0.0,94,0.00,FEW,SCT,0.00,0.0,WeatherDisplay:10.37,2013-07-28 08:39:00,
2013-07-28 04:44:00,51.7,50.0,29.83,West,276,0.0,0.0,94,0.00,FEW,SCT,0.00,0.0,WeatherDisplay:10.37,2013-07-28 08:44:00,
2013-07-28 04:49:00,51.7,50.0,29.83,West,276,0.0,0.0,94,0.00,FEW,SCT,0.00,0.0,WeatherDisplay:10.37,2013-07-28 08:49:00,
2013-07-28 04:54:00,51.6,49.9,29.82,West,276,0.0,0.0,94,0.00,FEW,SCT,0.00,0.0,WeatherDisplay:10.37,2013-07-28 08:54:00,
2013-07-28 04:59:00,51.5,49.8,29.83,West,276,0.0,0.0,94,0.00,FEW,SCT,0.00,0.0,WeatherDisplay:10.37,2013-07-28 08:59:00,
2013-07-28 05:04:00,51.5,49.8,29.82,West,276,0.0,0.0,94,0.00,FEW,SCT,0.00,0.0,WeatherDisplay:10.37,2013-07-28 09:04:00,
2013-07-28 05:09:00,51.4,49.7,29.82,West,276,0.0,0.0,94,0.00,FEW,SCT,0.00,0.0,WeatherDisplay:10.37,2013-07-28 09:09:00,
2013-07-28 05:14:00,51.3,49.6,29.82,West,276,0.0,0.0,94,0.00,FEW,SCT,0.00,0.0,WeatherDisplay:10.37,2013-07-28 09:14:00,
2013-07-28 05:19:00,51.3,49.6,29.82,West,276,0.0,0.0,94,0.00,FEW,SCT,0.00,0.0,WeatherDisplay:10.37,2013-07-28 09:19:00,
2013-07-28 05:24:00,51.1,49.4,29.82,West,276,0.1,1.2,94,0.00,FEW,SCT,0.00,0.0,WeatherDisplay:10.37,2013-07-28 09:24:00,
2013-07-28 05:29:00,51.1,49.7,29.83,West,276,0.0,0.0,95,0.00,FEW,SCT,0.00,0.0,WeatherDisplay:10.37,2013-07-28 09:29:00,
2013-07-28 05:34:00,51.0,49.6,29.82,West,276,0.0,0.0,95,0.00,FEW,SCT,0.00,0.0,WeatherDisplay:10.37,2013-07-28 09:34:00,
2013-07-28 05:39:00,51.0,49.6,29.82,West,276,0.0,0.0,95,0.00,FEW,SCT,0.00,0.0,WeatherDisplay:10.37,2013-07-28 09:39:00,
2013-07-28 05:44:00,50.9,49.5,29.83,West,276,0.0,0.0,95,0.00,FEW,SCT,0.00,0.0,WeatherDisplay:10.37,2013-07-28 09:44:00,
2013-07-28 05:49:00,50.9,49.5,29.83,West,276,0.0,0.0,95,0.00,FEW,SCT,0.00,0.0,WeatherDisplay:10.37,2013-07-28 09:49:00,
2013-07-28 05:54:00,50.9,49.5,29.83,West,276,0.0,0.0,95,0.00,FEW,SCT,0.00,0.0,WeatherDisplay:10.37,2013-07-28 09:54:00,
2013-07-28 05:59:00,50.8,49.4,29.83,West,276,0.0,0.0,95,0.00,FEW,SCT,0.00,0.0,WeatherDisplay:10.37,2013-07-28 09:59:00,
2013-07-28 06:04:00,50.8,49.4,29.83,West,276,0.0,0.0,95,0.00,FEW,SCT,0.00,0.0,WeatherDisplay:10.37,2013-07-28 10:04:00,
2013-07-28 06:09:00,50.8,49.4,29.83,West,276,0.0,0.0,95,0.00,FEW,SCT,0.00,0.0,WeatherDisplay:10.37,2013-07-28 10:09:00,
2013-07-28 06:14:00,50.8,49.4,29.84,West,276,0.0,0.0,95,0.00,FEW,SCT,0.00,0.0,WeatherDisplay:10.37,2013-07-28 10:14:00,
2013-07-28 06:19:00,50.8,49.4,29.83,West,276,0.0,0.0,95,0.00,FEW,SCT,0.00,0.0,WeatherDisplay:10.37,2013-07-28 10:19:00,
2013-07-28 06:24:00,50.8,49.4,29.84,West,276,0.0,0.0,95,0.00,FEW,SCT,0.00,0.0,WeatherDisplay:10.37,2013-07-28 10:24:00,
2013-07-28 06:29:00,50.8,49.4,29.84,West,276,0.0,0.0,95,0.00,FEW,SCT,0.00,0.0,WeatherDisplay:10.37,2013-07-28 10:29:00,
2013-07-28 06:35:00,50.8,49.4,29.84,West,276,0.0,0.0,95,0.00,FEW,SCT,0.00,5.0,WeatherDisplay:10.37,2013-07-28 10:35:00,
2013-07-28 06:40:00,50.8,49.7,29.84,West,276,0.0,0.0,96,0.00,FEW,SCT,0.00,7.0,WeatherDisplay:10.37,2013-07-28 10:40:00,
2013-07-28 06:45:00,50.9,49.8,29.84,West,276,0.0,0.0,96,0.00,FEW,SCT,0.00,9.0,WeatherDisplay:10.37,2013-07-28 10:45:00,
2013-07-28 06:50:00,51.0,49.9,29.84,ESE,117,0.0,1.0,96,0.00,FEW,SCT,0.00,11.0,WeatherDisplay:10.37,2013-07-28 10:50:00,
2013-07-28 06:55:00,51.1,50.0,29.84,ESE,117,0.0,0.0,96,0.00,FEW,SCT,0.00,12.0,WeatherDisplay:10.37,2013-07-28 10:55:00,
2013-07-28 07:00:00,51.2,50.1,29.84,SSW,192,0.0,0.0,96,0.00,FEW,SCT,0.00,14.0,WeatherDisplay:10.37,2013-07-28 11:00:00,
2013-07-28 07:05:00,51.3,50.2,29.84,South,180,0.0,1.2,96,0.00,BKN,SCT,0.00,12.0,WeatherDisplay:10.37,2013-07-28 11:05:00,
2013-07-28 07:10:00,51.4,50.3,29.84,SW,221,0.4,2.0,96,0.00,BKN,SCT,0.00,12.0,WeatherDisplay:10.37,2013-07-28 11:10:00,
2013-07-28 07:15:00,51.5,50.1,29.84,South,190,0.0,1.2,95,0.00,BKN,SCT,0.00,14.0,WeatherDisplay:10.37,2013-07-28 11:15:00,
2013-07-28 07:20:00,51.6,50.2,29.84,SSE,153,0.0,0.0,95,0.00,BKN,SCT,0.00,14.0,WeatherDisplay:10.37,2013-07-28 11:20:00,
2013-07-28 07:25:00,51.7,50.3,29.85,SSE,159,0.0,0.0,95,0.00,BKN,SCT,0.00,14.0,WeatherDisplay:10.37,2013-07-28 11:25:00,
2013-07-28 07:30:00,51.8,50.4,29.85,South,180,0.0,1.2,95,0.00,BKN,SCT,0.00,14.0,WeatherDisplay:10.37,2013-07-28 11:30:00,
2013-07-28 07:35:00,52.0,50.6,29.85,WSW,238,0.0,0.0,95,0.00,BKN,SCT,0.00,28.0,WeatherDisplay:10.37,2013-07-28 11:35:00,
2013-07-28 07:40:00,52.2,50.5,29.84,SW,224,0.6,2.3,94,0.00,BKN,SCT,0.00,49.0,WeatherDisplay:10.37,2013-07-28 11:40:00,
2013-07-28 07:45:00,52.5,50.8,29.85,SW,236,0.0,1.2,94,0.00,BKN,SCT,0.00,62.0,WeatherDisplay:10.37,2013-07-28 11:45:00,
2013-07-28 07:46:00,52.7,51.0,29.85,South,184,0.2,1.2,94,0.00,BKN,SCT,0.00,65.0,WeatherDisplay:10.37,2013-07-28 11:46:00,
2013-07-28 07:52:00,53.2,51.2,29.85,WSW,244,0.8,3.5,93,0.00,BKN,SCT,0.00,60.0,WeatherDisplay:10.37,2013-07-28 11:52:00,
2013-07-28 07:57:00,53.7,51.7,29.85,SW,228,0.0,1.2,93,0.00,BKN,SCT,0.00,33.0,WeatherDisplay:10.37,2013-07-28 11:57:00,
2013-07-28 08:02:00,54.0,51.4,29.85,NW,310,0.1,1.2,91,0.00,BKN,SCT,0.00,19.0,WeatherDisplay:10.37,2013-07-28 12:02:00,
2013-07-28 08:07:00,54.2,51.3,29.85,NW,313,0.8,2.3,90,0.00,BKN,SCT,0.00,18.0,WeatherDisplay:10.37,2013-07-28 12:07:00,
2013-07-28 08:12:00,54.3,51.4,29.85,WNW,284,0.0,2.3,90,0.00,BKN,SCT,0.00,14.0,WeatherDisplay:10.37,2013-07-28 12:12:00,
2013-07-28 08:17:00,54.3,51.1,29.85,WNW,283,0.0,0.0,89,0.00,BKN,SCT,0.00,19.0,WeatherDisplay:10.37,2013-07-28 12:17:00,
2013-07-28 08:22:00,54.3,51.4,29.85,WNW,283,0.0,1.0,90,0.00,BKN,SCT,0.00,40.0,WeatherDisplay:10.37,2013-07-28 12:22:00,
2013-07-28 08:27:00,54.5,51.6,29.86,WNW,283,0.0,0.0,90,0.00,BKN,SCT,0.00,67.0,WeatherDisplay:10.37,2013-07-28 12:27:00,
2013-07-28 08:32:00,55.0,51.8,29.86,SW,227,0.1,0.0,89,0.00,BKN,SCT,0.00,39.0,WeatherDisplay:10.37,2013-07-28 12:32:00,
2013-07-28 08:37:00,55.6,52.1,29.86,West,260,0.0,0.0,88,0.00,BKN,SCT,0.00,49.0,WeatherDisplay:10.37,2013-07-28 12:37:00,
2013-07-28 08:42:00,56.0,51.9,29.86,SW,219,1.4,3.5,86,0.00,BKN,SCT,0.00,60.0,WeatherDisplay:10.37,2013-07-28 12:42:00,
2013-07-28 08:47:00,56.5,52.4,29.86,SE,141,1.4,4.6,86,0.00,BKN,SCT,0.00,88.0,WeatherDisplay:10.37,2013-07-28 12:47:00,
2013-07-28 08:52:00,57.1,52.6,29.86,SW,220,1.0,3.5,85,0.00,BKN,SCT,0.00,104.0,WeatherDisplay:10.37,2013-07-28 12:52:00,
2013-07-28 08:57:00,57.6,52.5,29.86,WSW,246,1.7,3.5,83,0.00,BKN,SCT,0.00,90.0,WeatherDisplay:10.37,2013-07-28 12:57:00,
2013-07-28 09:02:00,57.8,52.7,29.86,WSW,244,1.9,3.5,83,0.00,BKN,SCT,0.00,30.0,WeatherDisplay:10.37,2013-07-28 13:02:00,
2013-07-28 09:07:00,57.8,52.7,29.86,ESE,113,0.4,2.3,83,0.00,BKN,SCT,0.00,23.0,WeatherDisplay:10.37,2013-07-28 13:07:00,
2013-07-28 09:12:00,57.7,52.2,29.86,SW,229,1.1,4.6,82,0.00,BKN,SCT,0.00,44.0,WeatherDisplay:10.37,2013-07-28 13:12:00,
2013-07-28 09:17:00,57.8,52.3,29.86,WSW,248,0.3,2.3,82,0.00,BKN,SCT,0.00,58.0,WeatherDisplay:10.37,2013-07-28 13:17:00,
2013-07-28 09:22:00,58.2,52.7,29.86,East,94,0.6,2.0,82,0.00,BKN,SCT,0.00,95.0,WeatherDisplay:10.37,2013-07-28 13:22:00,
2013-07-28 09:27:00,58.4,52.9,29.86,SW,219,0.6,2.3,82,0.00,BKN,SCT,0.00,93.0,WeatherDisplay:10.37,2013-07-28 13:27:00,
2013-07-28 09:32:00,58.6,52.8,29.86,ESE,111,0.3,2.3,81,0.00,BKN,SCT,0.00,102.0,WeatherDisplay:10.37,2013-07-28 13:32:00,
2013-07-28 09:37:00,59.0,53.2,29.86,SW,226,0.3,3.5,81,0.00,BKN,SCT,0.00,100.0,WeatherDisplay:10.37,2013-07-28 13:37:00,
2013-07-28 09:42:00,59.4,53.6,29.86,WSW,246,0.0,1.2,81,0.00,BKN,SCT,0.00,190.0,WeatherDisplay:10.37,2013-07-28 13:42:00,
2013-07-28 09:47:00,59.9,53.7,29.86,West,260,1.1,2.3,80,0.00,BKN,SCT,0.00,181.0,WeatherDisplay:10.37,2013-07-28 13:47:00,
2013-07-28 09:52:00,60.2,53.3,29.86,WSW,237,1.4,3.5,78,0.00,BKN,SCT,0.00,156.0,WeatherDisplay:10.37,2013-07-28 13:52:00,
2013-07-28 09:57:00,60.4,53.5,29.86,SW,231,1.1,3.5,78,0.00,BKN,SCT,0.00,149.0,WeatherDisplay:10.37,2013-07-28 13:57:00,
2013-07-28 10:02:00,60.3,52.7,29.86,West,265,2.0,3.5,76,0.00,BKN,SCT,0.00,146.0,WeatherDisplay:10.37,2013-07-28 14:02:00,
2013-07-28 10:07:00,60.1,53.2,29.86,NW,316,0.6,2.0,78,0.00,BKN,SCT,0.00,139.0,WeatherDisplay:10.37,2013-07-28 14:07:00,
2013-07-28 10:12:00,60.2,53.0,29.86,SSW,211,1.4,4.0,77,0.00,BKN,SCT,0.00,162.0,WeatherDisplay:10.37,2013-07-28 14:12:00,
2013-07-28 10:17:00,60.2,53.3,29.86,SSW,211,0.7,2.0,78,0.00,BKN,SCT,0.00,172.0,WeatherDisplay:10.37,2013-07-28 14:17:00,
2013-07-28 10:22:00,60.4,53.5,29.86,WNW,302,1.0,2.3,78,0.00,BKN,SCT,0.00,121.0,WeatherDisplay:10.37,2013-07-28 14:22:00,
2013-07-28 10:27:00,60.6,53.7,29.85,SSE,149,0.7,1.2,78,0.00,BKN,SCT,0.00,146.0,WeatherDisplay:10.37,2013-07-28 14:27:00,
2013-07-28 10:32:00,61.1,54.2,29.85,West,275,0.3,3.5,78,0.00,BKN,SCT,0.00,169.0,WeatherDisplay:10.37,2013-07-28 14:32:00,
2013-07-28 10:37:00,61.5,53.5,29.85,West,269,0.4,2.3,75,0.00,BKN,SCT,0.00,199.0,WeatherDisplay:10.37,2013-07-28 14:37:00,
2013-07-28 10:42:00,61.7,53.3,29.85,East,99,0.8,2.3,74,0.00,BKN,SCT,0.00,165.0,WeatherDisplay:10.37,2013-07-28 14:42:00,
2013-07-28 10:47:00,61.7,53.3,29.85,West,271,0.6,2.3,74,0.00,BKN,SCT,0.00,162.0,WeatherDisplay:10.37,2013-07-28 14:47:00,
2013-07-28 10:52:00,61.7,53.7,29.85,WSW,240,0.6,3.5,75,0.00,BKN,SCT,0.00,214.0,WeatherDisplay:10.37,2013-07-28 14:52:00,
2013-07-28 10:57:00,61.9,54.2,29.86,South,191,0.5,2.3,76,0.00,BKN,SCT,0.00,241.0,WeatherDisplay:10.37,2013-07-28 14:57:00,
2013-07-28 11:02:00,62.4,54.4,29.85,SSW,195,0.3,3.5,75,0.00,BKN,SCT,0.00,250.0,WeatherDisplay:10.37,2013-07-28 15:02:00,
2013-07-28 11:07:00,62.8,53.3,29.85,SE,128,0.9,3.5,71,0.00,BKN,SCT,0.00,188.0,WeatherDisplay:10.37,2013-07-28 15:07:00,
2013-07-28 11:12:00,62.9,53.7,29.85,South,186,1.1,3.5,72,0.00,BKN,SCT,0.00,408.0,WeatherDisplay:10.37,2013-07-28 15:12:00,
2013-07-28 11:17:00,63.2,54.4,29.85,WNW,288,0.2,1.2,73,0.00,BKN,SCT,0.00,431.0,WeatherDisplay:10.37,2013-07-28 15:17:00,
2013-07-28 11:22:00,63.4,53.8,29.85,NW,307,0.2,2.3,71,0.00,BKN,SCT,0.00,181.0,WeatherDisplay:10.37,2013-07-28 15:22:00,
2013-07-28 11:27:00,63.2,54.0,29.85,SSE,160,0.4,2.3,72,0.00,BKN,SCT,0.00,267.0,WeatherDisplay:10.37,2013-07-28 15:27:00,
2013-07-28 11:32:00,63.2,53.6,29.85,SW,234,0.0,1.2,71,0.00,BKN,SCT,0.00,156.0,WeatherDisplay:10.37,2013-07-28 15:32:00,
2013-07-28 11:38:00,63.0,53.8,29.85,SW,215,0.8,2.0,72,0.00,BKN,SCT,0.00,132.0,WeatherDisplay:10.37,2013-07-28 15:38:00,
2013-07-28 11:43:00,62.8,53.6,29.85,West,265,1.3,3.5,72,0.00,BKN,SCT,0.00,281.0,WeatherDisplay:10.37,2013-07-28 15:43:00,
2013-07-28 11:48:00,62.9,53.7,29.85,NNW,338,0.8,3.5,72,0.00,BKN,SCT,0.00,427.0,WeatherDisplay:10.37,2013-07-28 15:48:00,
2013-07-28 11:53:00,63.2,54.4,29.85,West,262,0.0,1.2,73,0.00,BKN,SCT,0.00,410.0,WeatherDisplay:10.37,2013-07-28 15:53:00,
2013-07-28 11:58:00,63.8,54.2,29.85,WNW,287,0.2,3.5,71,0.00,BKN,SCT,0.00,513.0,WeatherDisplay:10.37,2013-07-28 15:58:00,
2013-07-28 12:03:00,64.1,54.1,29.85,NW,319,1.0,4.0,70,0.00,OVC,SCT,0.00,454.0,WeatherDisplay:10.37,2013-07-28 16:03:00,
2013-07-28 12:08:00,64.0,53.2,29.85,WSW,254,0.2,2.0,68,0.00,OVC,SCT,0.00,329.0,WeatherDisplay:10.37,2013-07-28 16:08:00,
2013-07-28 12:13:00,63.9,53.5,29.85,WNW,285,0.9,2.0,69,0.00,OVC,SCT,0.00,271.0,WeatherDisplay:10.37,2013-07-28 16:13:00,
2013-07-28 12:18:00,63.9,53.1,29.85,West,260,1.0,3.5,68,0.00,OVC,SCT,0.00,278.0,WeatherDisplay:10.37,2013-07-28 16:18:00,
2013-07-28 12:23:00,64.0,53.2,29.85,SW,217,0.9,4.6,68,0.00,OVC,SCT,0.00,383.0,WeatherDisplay:10.37,2013-07-28 16:23:00,
2013-07-28 12:28:00,64.3,53.5,29.85,East,94,2.0,3.5,68,0.00,OVC,SCT,0.00,499.0,WeatherDisplay:10.37,2013-07-28 16:28:00,
2013-07-28 12:33:00,64.6,54.6,29.85,ESE,112,0.1,1.2,70,0.00,OVC,SCT,0.00,513.0,WeatherDisplay:10.37,2013-07-28 16:33:00,
2013-07-28 12:38:00,64.9,53.7,29.85,SE,128,2.1,3.5,67,0.00,OVC,SCT,0.00,476.0,WeatherDisplay:10.37,2013-07-28 16:38:00,
2013-07-28 12:43:00,64.8,52.8,29.85,WNW,294,1.5,3.5,65,0.00,OVC,SCT,0.00,406.0,WeatherDisplay:10.37,2013-07-28 16:43:00,
2013-07-28 12:48:00,65.0,53.8,29.85,WNW,300,0.5,2.3,67,0.00,OVC,SCT,0.00,503.0,WeatherDisplay:10.37,2013-07-28 16:48:00,
2013-07-28 12:53:00,65.4,54.2,29.85,WNW,289,1.2,4.6,67,0.00,OVC,SCT,0.00,784.0,WeatherDisplay:10.37,2013-07-28 16:53:00,
2013-07-28 12:58:00,66.1,54.8,29.85,SW,227,1.4,3.5,67,0.00,OVC,SCT,0.00,1218.0,WeatherDisplay:10.37,2013-07-28 16:58:00,
2013-07-28 13:03:00,66.5,53.9,29.85,ESE,115,1.8,3.5,64,0.00,BKN,SCT,0.00,1218.0,WeatherDisplay:10.37,2013-07-28 17:03:00,
2013-07-28 13:08:00,66.2,52.8,29.85,SW,236,2.5,4.6,62,0.00,BKN,SCT,0.00,294.0,WeatherDisplay:10.37,2013-07-28 17:08:00,
2013-07-28 13:13:00,66.1,55.2,29.85,West,272,0.2,1.2,68,0.00,BKN,SCT,0.00,1241.0,WeatherDisplay:10.37,2013-07-28 17:13:00,
2013-07-28 13:18:00,66.2,53.2,29.85,NW,320,1.0,3.5,63,0.00,BKN,SCT,0.00,295.0,WeatherDisplay:10.37,2013-07-28 17:18:00,
2013-07-28 13:23:00,65.6,53.9,29.85,WSW,242,0.6,2.0,66,0.00,BKN,SCT,0.00,155.0,WeatherDisplay:10.37,2013-07-28 17:23:00,
2013-07-28 13:28:00,65.2,52.7,29.85,West,271,1.9,5.0,64,0.00,BKN,SCT,0.00,190.0,WeatherDisplay:10.37,2013-07-28 17:28:00,
2013-07-28 13:33:00,64.7,53.5,29.85,NW,315,0.1,1.2,67,0.00,BKN,SCT,0.00,116.0,WeatherDisplay:10.37,2013-07-28 17:33:00,
2013-07-28 13:38:00,64.3,53.1,29.85,WSW,238,0.1,2.3,67,0.00,BKN,SCT,0.00,102.0,WeatherDisplay:10.37,2013-07-28 17:38:00,
2013-07-28 13:43:00,64.0,53.2,29.86,South,178,0.6,2.3,68,0.00,BKN,SCT,0.00,220.0,WeatherDisplay:10.37,2013-07-28 17:43:00,
2013-07-28 13:48:00,63.9,53.5,29.85,WSW,239,0.0,1.2,69,0.00,BKN,SCT,0.00,167.0,WeatherDisplay:10.37,2013-07-28 17:48:00,
2013-07-28 13:53:00,64.0,53.6,29.86,WSW,240,0.4,3.5,69,0.00,BKN,SCT,0.00,241.0,WeatherDisplay:10.37,2013-07-28 17:53:00,
2013-07-28 13:58:00,63.9,53.1,29.86,WNW,288,0.8,3.5,68,0.00,BKN,SCT,0.00,167.0,WeatherDisplay:10.37,2013-07-28 17:58:00,
2013-07-28 14:03:00,63.8,53.4,29.86,WSW,240,0.8,3.5,69,0.00,OVC,SCT,0.00,207.0,WeatherDisplay:10.37,2013-07-28 18:03:00,
2013-07-28 14:08:00,63.9,53.5,29.86,SSE,158,0.3,1.2,69,0.00,OVC,SCT,0.00,260.0,WeatherDisplay:10.37,2013-07-28 18:08:00,
2013-07-28 14:13:00,64.0,53.2,29.86,WNW,286,1.8,4.6,68,0.00,OVC,SCT,0.00,195.0,WeatherDisplay:10.37,2013-07-28 18:13:00,
2013-07-28 14:18:00,64.0,53.2,29.86,SW,232,0.6,3.5,68,0.00,OVC,SCT,0.00,172.0,WeatherDisplay:10.37,2013-07-28 18:18:00,
2013-07-28 14:23:00,64.0,53.2,29.86,SW,234,0.0,3.5,68,0.00,OVC,SCT,0.00,167.0,WeatherDisplay:10.37,2013-07-28 18:23:00,
2013-07-28 14:28:00,63.9,53.1,29.86,WNW,297,0.6,3.5,68,0.00,OVC,SCT,0.00,171.0,WeatherDisplay:10.37,2013-07-28 18:28:00,
2013-07-28 14:33:00,64.0,52.8,29.86,WNW,288,0.5,3.5,67,0.00,OVC,SCT,0.00,369.0,WeatherDisplay:10.37,2013-07-28 18:33:00,
2013-07-28 14:39:00,64.5,54.1,29.86,SW,229,0.2,2.3,69,0.00,OVC,SCT,0.00,466.0,WeatherDisplay:10.37,2013-07-28 18:39:00,
2013-07-28 14:44:00,65.1,53.9,29.86,NW,313,1.1,3.0,67,0.00,OVC,SCT,0.00,385.0,WeatherDisplay:10.37,2013-07-28 18:44:00,
2013-07-28 14:49:00,65.7,54.8,29.86,SE,133,0.7,3.5,68,0.00,OVC,SCT,0.00,1020.0,WeatherDisplay:10.37,2013-07-28 18:49:00,
2013-07-28 14:54:00,66.7,55.0,29.86,SW,236,2.0,5.0,66,0.00,OVC,SCT,0.00,962.0,WeatherDisplay:10.37,2013-07-28 18:54:00,
2013-07-28 14:59:00,67.7,56.8,29.86,West,273,0.8,4.0,68,0.00,OVC,SCT,0.00,981.0,WeatherDisplay:10.37,2013-07-28 18:59:00,
2013-07-28 15:04:00,68.3,54.3,29.86,SE,144,1.2,3.5,61,0.00,BKN,SCT,0.00,253.0,WeatherDisplay:10.37,2013-07-28 19:04:00,
2013-07-28 15:09:00,68.6,54.2,29.85,NW,311,1.2,3.5,60,0.00,BKN,SCT,0.00,1028.0,WeatherDisplay:10.37,2013-07-28 19:09:00,
2013-07-28 15:14:00,69.0,55.0,29.85,WNW,286,1.7,3.5,61,0.00,BKN,SCT,0.00,984.0,WeatherDisplay:10.37,2013-07-28 19:14:00,
2013-07-28 15:19:00,68.7,53.3,29.86,West,261,1.6,4.6,58,0.00,BKN,SCT,0.00,171.0,WeatherDisplay:10.37,2013-07-28 19:19:00,
2013-07-28 15:24:00,67.8,52.9,29.86,North,355,0.8,2.3,59,0.00,BKN,SCT,0.00,146.0,WeatherDisplay:10.37,2013-07-28 19:24:00,
2013-07-28 15:29:00,66.8,52.9,29.86,WSW,250,0.2,1.2,61,0.00,BKN,SCT,0.00,95.0,WeatherDisplay:10.37,2013-07-28 19:29:00,
2013-07-28 15:34:00,66.0,52.2,29.86,ENE,66,0.2,1.2,61,0.00,BKN,SCT,0.00,70.0,WeatherDisplay:10.37,2013-07-28 19:34:00,
2013-07-28 15:39:00,65.6,52.7,29.86,West,277,0.1,2.3,63,0.00,BKN,SCT,0.00,69.0,WeatherDisplay:10.37,2013-07-28 19:39:00,
2013-07-28 15:44:00,65.3,52.8,29.86,West,271,0.5,2.3,64,0.00,BKN,SCT,0.00,72.0,WeatherDisplay:10.37,2013-07-28 19:44:00,
2013-07-28 15:49:00,65.0,52.9,29.86,WSW,251,0.0,2.3,65,0.00,BKN,SCT,0.00,76.0,WeatherDisplay:10.37,2013-07-28 19:49:00,
2013-07-28 15:54:00,64.8,52.8,29.86,WSW,257,0.0,0.0,65,0.00,BKN,SCT,0.00,81.0,WeatherDisplay:10.37,2013-07-28 19:54:00,
2013-07-28 15:59:00,64.7,53.1,29.86,WSW,244,0.3,1.2,66,0.00,BKN,SCT,0.00,107.0,WeatherDisplay:10.37,2013-07-28 19:59:00,
2013-07-28 16:04:00,64.7,52.7,29.86,WSW,238,0.1,2.3,65,0.00,BKN,SCT,0.00,116.0,WeatherDisplay:10.37,2013-07-28 20:04:00,
2013-07-28 16:09:00,64.7,53.5,29.87,WSW,248,0.1,1.2,67,0.00,BKN,SCT,0.00,116.0,WeatherDisplay:10.37,2013-07-28 20:09:00,
2013-07-28 16:14:00,64.8,53.6,29.87,West,261,0.2,1.0,67,0.00,BKN,SCT,0.00,163.0,WeatherDisplay:10.37,2013-07-28 20:14:00,
2013-07-28 16:19:00,65.0,54.6,29.87,SE,136,0.0,1.2,69,0.00,BKN,SCT,0.00,209.0,WeatherDisplay:10.37,2013-07-28 20:19:00,
2013-07-28 16:24:00,65.2,54.4,29.87,West,275,0.9,3.0,68,0.00,BKN,SCT,0.00,60.0,WeatherDisplay:10.37,2013-07-28 20:24:00,
2013-07-28 16:29:00,64.8,55.2,29.88,SE,127,1.4,4.0,71,0.00,BKN,SCT,0.00,44.0,WeatherDisplay:10.37,2013-07-28 20:29:00,
2013-07-28 16:34:00,63.5,55.1,29.88,ENE,76,0.0,2.3,74,0.00,BKN,SCT,0.00,46.0,WeatherDisplay:10.37,2013-07-28 20:34:00,
2013-07-28 16:39:00,62.4,55.4,29.88,SW,234,0.8,3.5,78,0.00,BKN,SCT,0.00,86.0,WeatherDisplay:10.37,2013-07-28 20:39:00,
2013-07-28 16:44:00,61.7,55.8,29.88,WSW,247,0.2,1.2,81,0.00,BKN,SCT,0.00,123.0,WeatherDisplay:10.37,2013-07-28 20:44:00,
2013-07-28 16:49:00,61.4,55.9,29.88,SW,223,0.2,2.3,82,0.00,BKN,SCT,0.00,123.0,WeatherDisplay:10.37,2013-07-28 20:49:00,
2013-07-28 16:54:00,61.3,56.1,29.88,SW,220,0.0,0.0,83,0.00,BKN,SCT,0.00,116.0,WeatherDisplay:10.37,2013-07-28 20:54:00,
2013-07-28 16:59:00,61.4,55.5,29.88,WNW,297,0.1,2.3,81,0.00,BKN,SCT,0.00,236.0,WeatherDisplay:10.37,2013-07-28 20:59:00,
2013-07-28 17:04:00,61.8,55.9,29.88,SSW,194,0.0,2.3,81,0.00,BKN,SCT,0.00,369.0,WeatherDisplay:10.37,2013-07-28 21:04:00,
2013-07-28 17:09:00,62.5,55.5,29.88,SW,229,1.1,3.5,78,0.00,BKN,SCT,0.00,575.0,WeatherDisplay:10.37,2013-07-28 21:09:00,
2013-07-28 17:14:00,63.3,56.3,29.88,WSW,242,0.6,2.0,78,0.00,BKN,SCT,0.00,243.0,WeatherDisplay:10.37,2013-07-28 21:14:00,
2013-07-28 17:19:00,63.5,54.3,29.88,WNW,286,1.2,3.5,72,0.00,BKN,SCT,0.00,206.0,WeatherDisplay:10.37,2013-07-28 21:19:00,
2013-07-28 17:24:00,63.8,54.6,29.88,NW,304,0.3,2.3,72,0.00,BKN,SCT,0.00,316.0,WeatherDisplay:10.37,2013-07-28 21:24:00,
2013-07-28 17:29:00,64.2,53.4,29.88,NW,313,0.4,2.0,68,0.00,BKN,SCT,0.00,183.0,WeatherDisplay:10.37,2013-07-28 21:29:00,
2013-07-28 17:34:00,64.2,53.8,29.88,WNW,286,0.3,1.2,69,0.00,BKN,SCT,0.00,165.0,WeatherDisplay:10.37,2013-07-28 21:34:00,
2013-07-28 17:39:00,64.4,54.0,29.88,WSW,252,0.3,2.3,69,0.00,BKN,SCT,0.00,271.0,WeatherDisplay:10.37,2013-07-28 21:39:00,
2013-07-28 17:44:00,65.4,55.4,29.88,WNW,284,0.9,4.0,70,0.00,BKN,SCT,0.00,466.0,WeatherDisplay:10.37,2013-07-28 21:44:00,
2013-07-28 17:49:00,65.6,54.8,29.88,WNW,295,0.3,2.3,68,0.00,BKN,SCT,0.00,188.0,WeatherDisplay:10.37,2013-07-28 21:49:00,
2013-07-28 17:54:00,65.2,54.0,29.89,South,174,0.8,3.5,67,0.00,BKN,SCT,0.00,250.0,WeatherDisplay:10.37,2013-07-28 21:54:00,
2013-07-28 17:59:00,65.0,54.6,29.89,WNW,284,0.1,1.2,69,0.00,BKN,SCT,0.00,158.0,WeatherDisplay:10.37,2013-07-28 21:59:00,
2013-07-28 18:04:00,64.9,55.3,29.89,WSW,252,1.0,3.5,71,0.00,BKN,SCT,0.00,663.0,WeatherDisplay:10.37,2013-07-28 22:04:00,
2013-07-28 18:09:00,65.2,55.2,29.89,ESE,105,0.6,2.3,70,0.00,BKN,SCT,0.00,355.0,WeatherDisplay:10.37,2013-07-28 22:09:00,
2013-07-28 18:14:00,65.8,56.1,29.89,WNW,288,0.3,2.3,71,0.00,BKN,SCT,0.00,461.0,WeatherDisplay:10.37,2013-07-28 22:14:00,
2013-07-28 18:19:00,66.4,55.5,29.89,WNW,288,0.6,3.5,68,0.00,BKN,SCT,0.00,443.0,WeatherDisplay:10.37,2013-07-28 22:19:00,
2013-07-28 18:24:00,67.0,56.1,29.89,WSW,237,0.3,1.2,68,0.00,BKN,SCT,0.00,429.0,WeatherDisplay:10.37,2013-07-28 22:24:00,
2013-07-28 18:29:00,67.3,56.0,29.89,SW,217,0.3,3.5,67,0.00,BKN,SCT,0.00,399.0,WeatherDisplay:10.37,2013-07-28 22:29:00,
2013-07-28 18:34:00,66.8,55.5,29.89,WSW,244,0.4,2.3,67,0.00,BKN,SCT,0.00,128.0,WeatherDisplay:10.37,2013-07-28 22:34:00,
2013-07-28 18:39:00,65.8,55.3,29.89,ESE,117,0.1,1.2,69,0.00,BKN,SCT,0.00,77.0,WeatherDisplay:10.37,2013-07-28 22:39:00,
2013-07-28 18:44:00,65.4,55.0,29.89,West,281,0.6,3.5,69,0.00,BKN,SCT,0.00,383.0,WeatherDisplay:10.37,2013-07-28 22:44:00,
2013-07-28 18:49:00,65.4,55.0,29.89,WNW,288,0.4,3.5,69,0.00,BKN,SCT,0.00,44.0,WeatherDisplay:10.37,2013-07-28 22:49:00,
2013-07-28 18:54:00,65.1,55.1,29.89,SSW,211,0.2,1.2,70,0.00,BKN,SCT,0.00,67.0,WeatherDisplay:10.37,2013-07-28 22:54:00,
2013-07-28 18:59:00,65.0,55.4,29.89,South,190,0.2,1.2,71,0.00,BKN,SCT,0.00,118.0,WeatherDisplay:10.37,2013-07-28 22:59:00,
2013-07-28 19:04:00,65.0,55.4,29.90,SW,219,0.2,2.3,71,0.00,BKN,SCT,0.00,56.0,WeatherDisplay:10.37,2013-07-28 23:04:00,
2013-07-28 19:09:00,64.9,55.3,29.90,SE,133,0.2,2.3,71,0.00,BKN,SCT,0.00,49.0,WeatherDisplay:10.37,2013-07-28 23:09:00,
2013-07-28 19:14:00,64.5,55.3,29.90,SW,229,0.0,1.2,72,0.00,BKN,SCT,0.00,42.0,WeatherDisplay:10.37,2013-07-28 23:14:00,
2013-07-28 19:19:00,64.1,55.3,29.91,East,96,0.2,1.0,73,0.00,BKN,SCT,0.00,39.0,WeatherDisplay:10.37,2013-07-28 23:19:00,
2013-07-28 19:24:00,63.8,55.0,29.91,WNW,288,0.0,0.0,73,0.00,BKN,SCT,0.00,25.0,WeatherDisplay:10.37,2013-07-28 23:24:00,
2013-07-28 19:29:00,63.5,54.7,29.91,ESE,115,0.3,2.3,73,0.00,BKN,SCT,0.00,28.0,WeatherDisplay:10.37,2013-07-28 23:29:00,
2013-07-28 19:34:00,63.2,55.1,29.91,West,274,0.1,1.2,75,0.00,BKN,SCT,0.00,35.0,WeatherDisplay:10.37,2013-07-28 23:34:00,
2013-07-28 19:39:00,62.9,55.2,29.92,NW,317,0.3,2.0,76,0.00,BKN,SCT,0.00,30.0,WeatherDisplay:10.37,2013-07-28 23:39:00,
2013-07-28 19:44:00,62.6,54.2,29.91,NW,311,0.0,0.0,74,0.00,BKN,SCT,0.00,32.0,WeatherDisplay:10.37,2013-07-28 23:44:00,
2013-07-28 19:49:00,62.3,53.9,29.92,NW,311,0.0,0.0,74,0.00,BKN,SCT,0.00,32.0,WeatherDisplay:10.37,2013-07-28 23:49:00,
2013-07-28 19:54:00,62.3,54.6,29.92,WSW,242,0.0,0.0,76,0.00,BKN,SCT,0.00,35.0,WeatherDisplay:10.37,2013-07-28 23:54:00,
2013-07-28 19:59:00,62.2,54.2,29.92,WSW,244,0.0,1.2,75,0.00,BKN,SCT,0.00,39.0,WeatherDisplay:10.37,2013-07-28 23:59:00,
2013-07-28 20:04:00,62.1,54.4,29.92,WSW,244,0.0,0.0,76,0.00,BKN,SCT,0.00,26.0,WeatherDisplay:10.37,2013-07-29 00:04:00,
2013-07-28 20:09:00,62.1,54.8,29.92,WSW,244,0.0,0.0,77,0.00,BKN,SCT,0.00,14.0,WeatherDisplay:10.37,2013-07-29 00:09:00,
2013-07-28 20:14:00,61.9,54.6,29.92,WSW,244,0.0,0.0,77,0.00,BKN,SCT,0.00,11.0,WeatherDisplay:10.37,2013-07-29 00:14:00,
2013-07-28 20:19:00,61.7,54.8,29.92,WSW,244,0.0,0.0,78,0.00,BKN,SCT,0.00,9.0,WeatherDisplay:10.37,2013-07-29 00:19:00,
2013-07-28 20:25:00,61.5,54.6,29.92,WSW,244,0.0,0.0,78,0.00,BKN,SCT,0.00,11.0,WeatherDisplay:10.37,2013-07-29 00:25:00,
2013-07-28 20:29:00,61.3,54.4,29.92,WSW,244,0.0,0.0,78,0.00,BKN,SCT,0.00,7.0,WeatherDisplay:10.37,2013-07-29 00:29:00,
2013-07-28 20:34:00,61.1,54.5,29.92,WSW,244,0.0,0.0,79,0.00,BKN,SCT,0.00,5.0,WeatherDisplay:10.37,2013-07-29 00:34:00,
2013-07-28 20:40:00,61.0,54.8,29.92,WSW,244,0.0,0.0,80,0.00,BKN,SCT,0.00,0.0,WeatherDisplay:10.37,2013-07-29 00:40:00,
2013-07-28 20:44:00,60.8,54.2,29.92,WSW,244,0.0,0.0,79,0.00,BKN,SCT,0.00,0.0,WeatherDisplay:10.37,2013-07-29 00:44:00,
2013-07-28 20:49:00,60.6,54.7,29.93,WSW,244,0.0,0.0,81,0.00,BKN,SCT,0.00,0.0,WeatherDisplay:10.37,2013-07-29 00:49:00,
2013-07-28 20:55:00,60.5,54.6,29.93,WSW,244,0.0,0.0,81,0.00,BKN,SCT,0.00,0.0,WeatherDisplay:10.37,2013-07-29 00:55:00,
2013-07-28 20:59:00,60.3,54.4,29.93,WSW,244,0.0,0.0,81,0.00,BKN,SCT,0.00,0.0,WeatherDisplay:10.37,2013-07-29 00:59:00,
2013-07-28 21:05:00,60.1,54.6,29.93,WSW,244,0.0,0.0,82,0.00,BKN,SCT,0.00,0.0,WeatherDisplay:10.37,2013-07-29 01:05:00,
2013-07-28 21:10:00,59.9,54.4,29.93,WSW,244,0.0,0.0,82,0.00,BKN,SCT,0.00,0.0,WeatherDisplay:10.37,2013-07-29 01:10:00,
2013-07-28 21:15:00,59.8,54.3,29.93,WSW,244,0.0,0.0,82,0.00,BKN,SCT,0.00,0.0,WeatherDisplay:10.37,2013-07-29 01:15:00,
2013-07-28 21:20:00,59.6,54.4,29.93,WSW,244,0.0,0.0,83,0.00,BKN,SCT,0.00,0.0,WeatherDisplay:10.37,2013-07-29 01:20:00,
2013-07-28 21:25:00,59.5,54.3,29.93,WSW,244,0.0,0.0,83,0.00,BKN,SCT,0.00,0.0,WeatherDisplay:10.37,2013-07-29 01:25:00,
2013-07-28 21:30:00,59.5,54.3,29.93,WSW,244,0.0,0.0,83,0.00,BKN,SCT,0.00,0.0,WeatherDisplay:10.37,2013-07-29 01:30:00,
2013-07-28 21:35:00,59.4,54.6,29.94,WSW,244,0.0,0.0,84,0.00,BKN,SCT,0.00,0.0,WeatherDisplay:10.37,2013-07-29 01:35:00,
2013-07-28 21:40:00,59.3,54.5,29.94,WSW,244,0.0,0.0,84,0.00,BKN,SCT,0.00,0.0,WeatherDisplay:10.37,2013-07-29 01:40:00,
2013-07-28 21:45:00,59.3,54.5,29.94,WSW,244,0.0,0.0,84,0.00,BKN,SCT,0.00,0.0,WeatherDisplay:10.37,2013-07-29 01:45:00,
2013-07-28 21:50:00,59.3,54.8,29.94,WSW,244,0.0,0.0,85,0.00,BKN,SCT,0.00,0.0,WeatherDisplay:10.37,2013-07-29 01:50:00,
2013-07-28 21:55:00,59.3,54.8,29.94,WSW,244,0.0,0.0,85,0.00,BKN,SCT,0.00,0.0,WeatherDisplay:10.37,2013-07-29 01:55:00,
2013-07-28 22:00:00,59.3,54.8,29.95,WSW,244,0.0,0.0,85,0.00,BKN,SCT,0.00,0.0,WeatherDisplay:10.37,2013-07-29 02:00:00,
2013-07-28 22:05:00,59.2,55.0,29.95,WSW,244,0.0,0.0,86,0.00,BKN,SCT,0.00,0.0,WeatherDisplay:10.37,2013-07-29 02:05:00,
2013-07-28 22:10:00,59.2,55.0,29.95,WSW,244,0.0,0.0,86,0.00,BKN,SCT,0.00,0.0,WeatherDisplay:10.37,2013-07-29 02:10:00,
2013-07-28 22:15:00,59.1,54.9,29.95,WSW,244,0.0,0.0,86,0.00,BKN,SCT,0.00,0.0,WeatherDisplay:10.37,2013-07-29 02:15:00,
2013-07-28 22:20:00,59.0,54.8,29.95,WSW,244,0.0,0.0,86,0.00,BKN,SCT,0.00,0.0,WeatherDisplay:10.37,2013-07-29 02:20:00,
2013-07-28 22:26:00,58.8,54.6,29.95,WSW,244,0.0,0.0,86,0.00,BKN,SCT,0.00,0.0,WeatherDisplay:10.37,2013-07-29 02:26:00,
2013-07-28 22:31:00,58.7,54.5,29.95,WSW,244,0.0,0.0,86,0.00,BKN,SCT,0.00,0.0,WeatherDisplay:10.37,2013-07-29 02:31:00,
2013-07-28 22:36:00,58.6,54.7,29.95,WSW,244,0.0,0.0,87,0.00,BKN,SCT,0.00,0.0,WeatherDisplay:10.37,2013-07-29 02:36:00,
2013-07-28 22:41:00,58.4,54.5,29.95,WSW,244,0.0,0.0,87,0.00,BKN,SCT,0.00,0.0,WeatherDisplay:10.37,2013-07-29 02:41:00,
2013-07-28 22:46:00,58.3,54.4,29.95,WSW,244,0.0,0.0,87,0.00,BKN,SCT,0.00,0.0,WeatherDisplay:10.37,2013-07-29 02:46:00,
2013-07-28 22:51:00,58.1,54.2,29.95,WSW,244,0.0,0.0,87,0.00,BKN,SCT,0.00,0.0,WeatherDisplay:10.37,2013-07-29 02:51:00,
2013-07-28 22:56:00,58.0,54.5,29.95,WSW,244,0.0,0.0,88,0.00,BKN,SCT,0.00,0.0,WeatherDisplay:10.37,2013-07-29 02:56:00,
2013-07-28 23:01:00,57.8,54.3,29.96,WSW,244,0.1,1.2,88,0.00,BKN,SCT,0.00,0.0,WeatherDisplay:10.37,2013-07-29 03:01:00,
2013-07-28 23:06:00,57.7,54.2,29.95,WSW,248,0.5,1.0,88,0.00,BKN,SCT,0.00,0.0,WeatherDisplay:10.37,2013-07-29 03:06:00,
2013-07-28 23:11:00,57.7,54.2,29.96,WSW,248,0.1,1.0,88,0.00,BKN,SCT,0.00,0.0,WeatherDisplay:10.37,2013-07-29 03:11:00,
2013-07-28 23:16:00,57.6,54.1,29.95,WSW,248,0.0,1.2,88,0.00,BKN,SCT,0.00,0.0,WeatherDisplay:10.37,2013-07-29 03:16:00,
2013-07-28 23:21:00,57.5,54.0,29.95,WSW,248,0.0,0.0,88,0.00,BKN,SCT,0.00,0.0,WeatherDisplay:10.37,2013-07-29 03:21:00,
2013-07-28 23:26:00,57.4,53.9,29.95,WSW,248,0.0,0.0,88,0.00,BKN,SCT,0.00,0.0,WeatherDisplay:10.37,2013-07-29 03:26:00,
2013-07-28 23:31:00,57.3,53.8,29.95,WSW,248,0.0,0.0,88,0.00,BKN,SCT,0.00,0.0,WeatherDisplay:10.37,2013-07-29 03:31:00,
2013-07-28 23:37:00,57.2,53.7,29.96,WSW,248,0.0,0.0,88,0.00,BKN,SCT,0.00,0.0,WeatherDisplay:10.37,2013-07-29 03:37:00,
2013-07-28 23:42:00,57.1,53.6,29.96,WSW,248,0.0,0.0,88,0.00,BKN,SCT,0.00,0.0,WeatherDisplay:10.37,2013-07-29 03:42:00,
2013-07-28 23:47:00,57.0,53.5,29.96,WSW,248,0.0,0.0,88,0.00,BKN,SCT,0.00,0.0,WeatherDisplay:10.37,2013-07-29 03:47:00,
2013-07-28 23:52:00,56.9,53.4,29.96,WSW,248,0.0,0.0,88,0.00,BKN,SCT,0.00,0.0,WeatherDisplay:10.37,2013-07-29 03:52:00,
2013-07-28 23:57:00,56.8,53.3,29.96,WSW,248,0.0,0.0,88,0.00,BKN,SCT,0.00,0.0,WeatherDisplay:10.37,2013-07-29 03:57:00,